weather.gov     
National Weather Service

Hourly Weather Roundup
NWS Homepage
This page is being discontinued on March 12, 2014.
The same data is available at this site. Please update your bookmarks.
Thank you, and we apologize for the inconvenience.
Please send an email to SR-SRH.Webmaster@noaa.gov with any concerns.


Current Version
Previous Version:    01  02  03  04  05  06  07  08  09  10  11  12  13  14  15  16  17  18  19  20  21  22  23  24  25  26  27  28  29  30  
   31  32  33  34  35  36  37  38  39  40  41  42  43  44  45  46  47  48  49  50  51  52  53  54  55  56  57  58  59  60  
[Printable]
809
NZUS43 KILX 220910
HWRILX

AREA WEATHER ROUNDUP
NATIONAL WEATHER SERVICE, LINCOLN IL
300 AM CST MON DEC 22 2014


CITY           SKY/WX    TMP DP  RH WIND       PRES   REMARKS
BLOOMINGTON    CLOUDY    33  30  89 SE12      29.94F WCI  24
CHAMPAIGN      CLOUDY    32  28  85 SE10      29.96F WCI  24
DECATUR        CLOUDY    35  30  82 SE9       29.95F WCI  28
FLORA          CLOUDY    35  31  85 E7        29.95F WCI  29
GALESBURG      CLOUDY    36  32  86 SE7       29.87F WCI  30
JACKSONVILLE   CLOUDY    40  33  77 SE9       29.88F WCI  34
LACON          CLOUDY    35  30  82 S8        29.92F WCI  28
LAWRENCEVILLE  CLOUDY    34  30  85 E7        29.98F WCI  28
LITCHFIELD     CLOUDY    38  29  71 SE10      29.89F WCI  30
$$


CITY           SKY/WX    TMP DP  RH WIND       PRES   REMARKS
LINCOLN        CLOUDY    37  32  84 SE9       29.94F WCI  30
MACOMB         CLOUDY    37  33  87 SE12      29.88F WCI  29
MATTOON        CLOUDY    33  28  81 SE9       29.94F WCI  25
MT CARMEL AP   DRIZZLE   36  32  87 E6        29.97F WCI  31
OLNEY-NOBLE AP DRIZZLE   34  30  86 E6        29.95F WCI  29
PARIS          CLOUDY    32  30  92 SE5       29.98F WCI  27
PEORIA         LGT RAIN  38  30  73 SE8       29.92F WCI  32
PONTIAC        CLOUDY    34  31  90 SE13      29.96S WCI  25
RANTOUL        CLOUDY    33  31  90 SE10      29.96F WCI  25
ROBINSON       CLOUDY    32  30  90 E3        29.99F
SPRINGFIELD    LGT RAIN  38  32  79 SE12      29.92F WCI  30
TAYLORVILLE    CLOUDY    36  30  80 SE8       29.92F WCI  29
$$

...REGIONAL REPORTS...


CITY           SKY/WX    TMP DP  RH WIND       PRES   REMARKS
CHICAGO O`HARE MOCLDY    28  25  88 SE7       29.97F WCI  21
KANKAKEE       MOCLDY    30  28  91 SE8       29.99F WCI  23
MOLINE         CLOUDY    36  31  82 S12       29.86F WCI  28
MOUNT VERNON   CLOUDY    37  27  65 E6        29.93F WCI  33
PITTSFIELD     CLOUDY    40  34  78 SE10      29.85F WCI  33
QUINCY         CLOUDY    39  33  79 SE12      29.83F WCI  32
ROCKFORD       LGT RAIN  33  30  88 S12       29.95F FOG     WCI  24
$$


CITY           SKY/WX    TMP DP  RH WIND       PRES   REMARKS
BURLINGTON     CLOUDY    40  33  76 SE9       29.84F WCI  34
CEDAR RAPIDS   CLOUDY    36  34  92 S13       29.79F FOG     WCI  27
DES MOINES     CLOUDY    41  38  89 S14       29.70F WCI  33
KIRKSVILLE     CLOUDY    39  36  89 SE13      29.77F WCI  31
OTTUMWA        CLOUDY    39  34  82 S14       29.76F WCI  31
ST LOUIS       CLOUDY    43  31  62 SE12      29.87F
$$


CITY           SKY/WX    TMP DP  RH WIND       PRES   REMARKS
TERRE HAUTE    CLOUDY    32  27  81 E6        29.98F WCI  26
EVANSVILLE     CLOUDY    36  30  79 NE5       29.97F WCI  32
INDIANAPOLIS   MOCLDY    27  24  89 E6        30.00F FOG     WCI  20
LAFAYETTE      CLOUDY    28  25  88 E6        30.01F WCI  22
MADISON        CLOUDY    34  29  82 S15       29.90F WCI  24
MILWAUKEE      CLOUDY    34  28  79 S9        29.97F WCI  27
$$






U.S. Dept. of Commerce
NOAA National Weather Service
1325 East West Highway
Silver Spring, MD 20910
E-mail: w-nws.webmaster@noaa.gov
Page last modified: May 16, 2007
NATIONAL WEATHER SERVICE: for Safety, for Work, for Fun - FOR LIFE